• In United Kingdom
  • List of Countries
  • For 7 days
  • Water Temperature
  • Satellite Maps
  • Weather Map
  • Weather Widgets
  • user-avatar
    Login

    Hourly Weather Tunja

    Today, 22 August, Wednesday

    Time Temperature Precipitation Wind Pressure Humidity
    00:00 +10°C° 0.2 mm 2 mps 550 mmHg 90%
    01:00 +10°C° 0.2 mm 2 mps 550 mmHg 90%
    02:00 +10°C° 0.7 mm 1 mps 550 mmHg 91%
    03:00 +10°C° 0.7 mm 1 mps 550 mmHg 91%
    04:00 +10°C° 0.7 mm 1 mps 549 mmHg 91%
    05:00 +9°C° 1 mm 2 mps 550 mmHg 90%
    06:00 +9°C° 1 mm 2 mps 550 mmHg 90%
    07:00 +10°C° 1 mm 2 mps 550 mmHg 89%
    08:00 +12°C° 0.4 mm 2 mps 551 mmHg 86%
    09:00 +13°C° 0.4 mm 2 mps 551 mmHg 82%
    10:00 +14°C° 0.4 mm 2 mps 552 mmHg 79%
    11:00 +15°C° 0.5 mm 2 mps 552 mmHg 75%
    12:00 +16°C° 0.5 mm 2 mps 552 mmHg 71%
    13:00 +17°C° 0.5 mm 2 mps 552 mmHg 68%
    14:00 +16°C° 0.7 mm 2 mps 552 mmHg 70%
    15:00 +16°C° 0.7 mm 2 mps 551 mmHg 72%
    16:00 +15°C° 0.7 mm 2 mps 550 mmHg 74%
    17:00 +14°C° 0.5 mm 2 mps 550 mmHg 79%
    18:00 +13°C° 0.5 mm 1 mps 549 mmHg 85%
    19:00 +12°C° 0.5 mm 1 mps 549 mmHg 90%
    20:00 +11°C° 0.3 mm 1 mps 549 mmHg 91%
    21:00 +11°C° 0.3 mm 1 mps 550 mmHg 91%
    22:00 +11°C° 0.3 mm 1 mps 550 mmHg 91%
    23:00 +10°C° 0.2 mm 1 mps 550 mmHg 92%

    Tomorrow, 23 August, Thursday

    Time Temperature Precipitation Wind Pressure Humidity
    00:00 +10°C° 0.2 mm 1 mps 549 mmHg 92%
    01:00 +10°C° 0.2 mm 1 mps 549 mmHg 92%
    02:00 +9°C° 0.1 mm 1 mps 549 mmHg 92%
    03:00 +9°C° 0.1 mm 1 mps 548 mmHg 92%
    04:00 +9°C° 0.1 mm 1 mps 548 mmHg 92%
    05:00 +9°C° 0 mm 1 mps 549 mmHg 90%
    06:00 +10°C° 0 mm 1 mps 549 mmHg 88%
    07:00 +10°C° 0 mm 1 mps 550 mmHg 86%
    08:00 +12°C° 0.1 mm 2 mps 551 mmHg 79%
    09:00 +14°C° 0.1 mm 2 mps 552 mmHg 73%
    10:00 +16°C° 0.1 mm 2 mps 553 mmHg 66%
    11:00 +16°C° 0.3 mm 2 mps 553 mmHg 66%
    12:00 +17°C° 0.3 mm 2 mps 552 mmHg 65%
    13:00 +18°C° 0.3 mm 2 mps 552 mmHg 64%
    14:00 +17°C° 0.6 mm 2 mps 551 mmHg 67%
    15:00 +16°C° 0.6 mm 2 mps 550 mmHg 71%
    16:00 +15°C° 0.6 mm 2 mps 549 mmHg 74%
    17:00 +14°C° 0.6 mm 2 mps 549 mmHg 80%
    18:00 +13°C° 0.6 mm 1 mps 549 mmHg 86%
    19:00 +11°C° 0.6 mm 1 mps 549 mmHg 92%
    20:00 +11°C° 0.3 mm 1 mps 549 mmHg 93%
    21:00 +11°C° 0.3 mm 1 mps 549 mmHg 93%
    22:00 +10°C° 0.3 mm 1 mps 550 mmHg 93%
    23:00 +10°C° 0.3 mm 1 mps 549 mmHg 93%

    Day after tomorrow, 24 August, Friday

    Time Temperature Precipitation Wind Pressure Humidity
    00:00 +10°C° 0.3 mm 1 mps 549 mmHg 92%
    01:00 +9°C° 0.3 mm 1 mps 548 mmHg 92%
    02:00 +9°C° 0.5 mm 1 mps 548 mmHg 91%
    03:00 +9°C° 0.5 mm 1 mps 548 mmHg 91%
    04:00 +9°C° 0.5 mm 1 mps 548 mmHg 90%
    05:00 +10°C° 0.1 mm 1 mps 548 mmHg 89%
    06:00 +10°C° 0.1 mm 1 mps 549 mmHg 87%
    07:00 +11°C° 0.1 mm 1 mps 550 mmHg 86%
    08:00 +13°C° 0.1 mm 2 mps 551 mmHg 78%
    09:00 +15°C° 0.1 mm 2 mps 552 mmHg 70%
    10:00 +17°C° 0.1 mm 2 mps 553 mmHg 62%
    11:00 +17°C° 0.3 mm 2 mps 553 mmHg 63%
    12:00 +17°C° 0.3 mm 2 mps 552 mmHg 63%
    13:00 +17°C° 0.3 mm 2 mps 552 mmHg 64%
    14:00 +17°C° 0.5 mm 2 mps 551 mmHg 68%
    15:00 +16°C° 0.5 mm 2 mps 550 mmHg 72%
    16:00 +15°C° 0.5 mm 2 mps 550 mmHg 76%
    17:00 +14°C° 0.5 mm 2 mps 549 mmHg 82%
    18:00 +13°C° 0.5 mm 1 mps 549 mmHg 88%
    19:00 +11°C° 0.5 mm 1 mps 549 mmHg 94%
    20:00 +11°C° 0.2 mm 1 mps 549 mmHg 94%
    21:00 +11°C° 0.2 mm 1 mps 549 mmHg 94%
    22:00 +10°C° 0.2 mm 1 mps 550 mmHg 94%
    23:00 +10°C° 0.1 mm 1 mps 549 mmHg 94%

    25 August, Saturday

    Time Temperature Precipitation Wind Pressure Humidity
    00:00 +10°C° 0.1 mm 1 mps 549 mmHg 93%
    01:00 +9°C° 0.1 mm 1 mps 548 mmHg 93%
    02:00 +9°C° 0.2 mm 1 mps 548 mmHg 92%
    03:00 +9°C° 0.2 mm 1 mps 548 mmHg 91%
    04:00 +9°C° 0.2 mm 1 mps 548 mmHg 89%
    05:00 +9°C° 0.2 mm 1 mps 549 mmHg 88%
    06:00 +10°C° 0.2 mm 1 mps 549 mmHg 86%
    07:00 +11°C° 0.2 mm 1 mps 550 mmHg 85%
    08:00 +12°C° 0.2 mm 2 mps 551 mmHg 79%
    09:00 +14°C° 0.2 mm 2 mps 552 mmHg 74%
    10:00 +15°C° 0.2 mm 2 mps 553 mmHg 69%
    11:00 +16°C° 0.6 mm 2 mps 553 mmHg 69%
    12:00 +16°C° 0.6 mm 2 mps 552 mmHg 69%
    13:00 +16°C° 0.6 mm 2 mps 552 mmHg 68%
    14:00 +16°C° 0.9 mm 2 mps 551 mmHg 73%
    15:00 +15°C° 0.9 mm 2 mps 551 mmHg 77%
    16:00 +14°C° 0.9 mm 2 mps 550 mmHg 81%
    17:00 +13°C° 1.1 mm 2 mps 550 mmHg 85%
    18:00 +12°C° 1.1 mm 2 mps 550 mmHg 90%
    19:00 +10°C° 1.1 mm 2 mps 550 mmHg 94%
    20:00 +11°C° 0.3 mm 1 mps 550 mmHg 94%
    21:00 +10°C° 0.3 mm 1 mps 550 mmHg 95%
    22:00 +10°C° 0.3 mm 1 mps 550 mmHg 95%
    23:00 +10°C° 0.1 mm 1 mps 550 mmHg 94%

    26 August, Sunday

    Time Temperature Precipitation Wind Pressure Humidity
    00:00 +10°C° 0.1 mm 1 mps 550 mmHg 94%
    01:00 +9°C° 0.1 mm 1 mps 549 mmHg 94%
    02:00 +9°C° 0.1 mm 1 mps 549 mmHg 93%
    03:00 +9°C° 0.1 mm 1 mps 549 mmHg 93%
    04:00 +8°C° 0.1 mm 2 mps 549 mmHg 92%
    05:00 +8°C° 0.1 mm 2 mps 549 mmHg 91%
    06:00 +9°C° 0.1 mm 2 mps 550 mmHg 89%
    07:00 +9°C° 0.1 mm 2 mps 550 mmHg 88%
    08:00 +12°C° 0.2 mm 2 mps 551 mmHg 82%
    09:00 +13°C° 0.2 mm 2 mps 552 mmHg 77%
    10:00 +14°C° 0.2 mm 3 mps 553 mmHg 71%
    11:00 +15°C° 0.4 mm 2 mps 552 mmHg 71%
    12:00 +15°C° 0.4 mm 2 mps 552 mmHg 70%
    13:00 +15°C° 0.4 mm 2 mps 551 mmHg 70%
    14:00 +15°C° 0.5 mm 2 mps 551 mmHg 71%
    15:00 +15°C° 0.5 mm 2 mps 550 mmHg 72%
    16:00 +14°C° 0.5 mm 2 mps 550 mmHg 73%
    17:00 +13°C° 0.3 mm 2 mps 550 mmHg 78%
    18:00 +12°C° 0.3 mm 1 mps 549 mmHg 84%
    19:00 +11°C° 0.3 mm 1 mps 549 mmHg 89%
    20:00 +10°C° 0.1 mm 1 mps 549 mmHg 89%
    21:00 +10°C° 0.1 mm 1 mps 550 mmHg 90%
    22:00 +10°C° 0.1 mm 1 mps 550 mmHg 90%
    23:00 +10°C° 0.3 mm 1 mps 549 mmHg 90%

    27 August, Monday

    Time Temperature Precipitation Wind Pressure Humidity
    00:00 +9°C° 0.3 mm 1 mps 549 mmHg 90%
    01:00 +9°C° 0.3 mm 1 mps 549 mmHg 89%
    02:00 +9°C° 0.6 mm 1 mps 549 mmHg 89%
    03:00 +9°C° 0.6 mm 1 mps 549 mmHg 89%
    04:00 +9°C° 0.6 mm 1 mps 548 mmHg 88%
    05:00 +10°C° 0.1 mm 1 mps 549 mmHg 87%
    06:00 +10°C° 0.1 mm 1 mps 550 mmHg 86%
    07:00 +11°C° 0.1 mm 1 mps 551 mmHg 85%
    08:00 +13°C° 0.1 mm 2 mps 551 mmHg 79%
    09:00 +14°C° 0.1 mm 2 mps 552 mmHg 74%
    10:00 +16°C° 0.1 mm 2 mps 553 mmHg 69%
    11:00 +16°C° 0.4 mm 2 mps 553 mmHg 68%
    12:00 +17°C° 0.4 mm 2 mps 552 mmHg 67%
    13:00 +17°C° 0.4 mm 2 mps 552 mmHg 66%
    14:00 +16°C° 0.7 mm 2 mps 551 mmHg 70%
    15:00 +15°C° 0.7 mm 2 mps 550 mmHg 74%
    16:00 +15°C° 0.7 mm 1 mps 550 mmHg 78%
    17:00 +14°C° 0.6 mm 1 mps 550 mmHg 82%
    18:00 +13°C° 0.6 mm 1 mps 549 mmHg 86%
    19:00 +12°C° 0.6 mm 1 mps 549 mmHg 91%
    20:00 +11°C° 0.5 mm 1 mps 550 mmHg 91%
    21:00 +11°C° 0.5 mm 1 mps 550 mmHg 92%
    22:00 +11°C° 0.5 mm 1 mps 550 mmHg 92%
    23:00 +11°C° 0.5 mm 1 mps 550 mmHg 92%
    Show more